Location: Riverton
(43.0250°N, 108.3790°W)
Time: 03:34:06
(UTC-06:00)

Amateur Radio Satellites - All Passes

Search period start: 28 June 2016 03:04
Search period end: 29 June 2016 03:04
Location: Riverton, 43.0250°N, 108.3790°W

Satellite Date Start Highest point End Downlink Frequencies (MHz)
Time Altitude Azimuth
Cosmos 2491 28 Jun 03:14:48 03:21:59 27° 294° (WNW) 03:29:11 435.465 / 435.565
O/OREOS (USA 219) 28 Jun 03:21:04 03:25:30 61° 109° (ESE) 03:29:56 437.305
PCSat 28 Jun 03:22:58 03:28:22 71° 302° (WNW) 03:33:49 145.827
MOZHAYETS 4 28 Jun 03:27:18 03:31:14 28° 67° (ENE) 03:35:11
Cosmos 2504 28 Jun 03:36:55 03:43:58 28° 279° (W) 03:50:49 435.465 / 435.565
Oscar 19 28 Jun 03:37:34 03:42:15 37° 292° (WNW) 03:46:55 437.125/150
BEESAT 3 28 Jun 03:39:04 03:42:59 77° 304° (NW) 03:46:56 437.485
AO-7 28 Jun 03:41:09 03:47:15 22° 91° (E) 03:53:19 29.400- 29.500
KKS-1 28 Jun 03:41:22 03:45:32 43° 71° (ENE) 03:49:44 437.445
Gurwin Techsat 1B 28 Jun 03:48:56 03:54:14 66° 287° (WNW) 03:59:30 435.225
SWISSCUBE 28 Jun 03:55:54 03:59:03 17° 268° (W) 04:02:13 437.505
ITAMSAT 1 28 Jun 03:58:14 04:03:25 57° 101° (ESE) 04:08:32 435.822/435.867
GONETS M04 28 Jun 04:08:49 04:13:11 14° 56° (NE) 04:17:33
STARS 28 Jun 04:15:09 04:19:21 49° 72° (ENE) 04:23:35 437.465
BEESAT 2 28 Jun 04:15:44 04:19:39 57° 307° (NW) 04:23:36 435.950
BEESAT 28 Jun 04:23:55 04:24:43 10° 272° (W) 04:25:31 436.000
ITUPSAT 1 28 Jun 04:24:21 04:25:20 11° 272° (W) 04:26:20 437.325
Cosmos 2499 28 Jun 04:30:07 04:33:55 13° 53° (NE) 04:37:39 435.465 / 435.565
AIST 1 28 Jun 04:43:34 04:47:48 68° 80° (E) 04:52:02
CUBESAT XI-V 28 Jun 04:53:16 04:57:12 27° 67° (ENE) 05:01:07 437.345
AIST 2 28 Jun 04:53:51 04:56:53 20° 112° (ESE) 04:59:56 435.215
HORYU 2 28 Jun 04:58:22 05:00:28 13° 90° (E) 05:02:35 437.375
O/OREOS (USA 219) 28 Jun 05:02:31 05:05:20 16° 308° (NW) 05:08:08 437.305
MOZHAYETS 4 28 Jun 05:04:13 05:08:18 31° 264° (W) 05:12:27
PCSat 28 Jun 05:09:41 05:12:46 15° 323° (NW) 05:15:53 145.827
AO-85 28 Jun 05:10:43 05:12:58 13° 32° (NNE) 05:15:08 145.980
KKS-1 28 Jun 05:19:13 05:22:18 18° 267° (W) 05:25:25 437.445
BEESAT 3 28 Jun 05:19:56 05:21:21 12° 324° (NW) 05:22:46 437.485
AO-7 28 Jun 05:32:29 05:40:55 83° 290° (WNW) 05:49:16 29.400- 29.500
ITAMSAT 1 28 Jun 05:38:40 05:42:26 20° 298° (WNW) 05:46:12 435.822/435.867
STARS 28 Jun 05:53:22 05:55:59 16° 268° (W) 05:58:39 437.465
STRAND 1 28 Jun 06:02:49 06:05:04 13° 58° (ENE) 06:07:21 437.568
GONETS M04 28 Jun 06:03:12 06:11:55 68° 79° (ENE) 06:20:38
Cosmos 2499 28 Jun 06:20:29 06:29:15 61° 77° (ENE) 06:37:27 435.465 / 435.565
AIST 1 28 Jun 06:24:37 06:24:46 10° 277° (W) 06:24:54
LilacSat-2 28 Jun 06:26:59 06:28:41 12° 91° (E) 06:30:23 437.200
CUBESAT XI-V 28 Jun 06:30:12 06:34:26 33° 264° (W) 06:38:43 437.345
AIST 2 28 Jun 06:31:11 06:35:06 41° 310° (NW) 06:39:03 435.215
HORYU 2 28 Jun 06:32:59 06:37:26 63° 287° (WNW) 06:41:53 437.375
CUTE-I 28 Jun 06:35:18 06:39:18 21° 92° (E) 06:43:17 437.470
BRITE-PL 28 Jun 06:41:12 06:44:44 27° 95° (E) 06:48:18 437.365/2234.400
AO-85 28 Jun 06:49:50 06:54:25 69° 54° (NE) 06:58:34 145.980
NOAA 15 28 Jun 07:04:26 07:09:34 51° 100° (E) 07:14:39 137.62
PHONESAT 2.4 28 Jun 07:10:59 07:12:51 15° 153° (SSE) 07:14:43 2401.200-2431.200
GOMX 1 28 Jun 07:17:05 07:20:48 30° 97° (E) 07:24:37 467.674
AO-7 28 Jun 07:26:41 07:32:30 21° 311° (NW) 07:38:18 29.400- 29.500
NOAA 18 28 Jun 07:30:20 07:35:53 68° 103° (ESE) 07:41:25 137.9125
STRAND 1 28 Jun 07:38:20 07:43:28 89° 75° (ENE) 07:48:40 437.568
Cubesat XI-IV 28 Jun 07:39:45 07:45:10 78° 103° (ESE) 07:50:33 437.490
CUSAT 1 28 Jun 07:42:09 07:49:42 54° 95° (E) 07:56:07 437.405
LilacSat-2 28 Jun 07:59:31 08:03:16 49° 287° (WNW) 08:07:02 437.200
DANDE 28 Jun 08:00:06 08:07:46 41° 90° (E) 08:14:56 436.750
GONETS M04 28 Jun 08:01:08 08:07:58 27° 279° (W) 08:14:50
PRISM 28 Jun 08:08:34 08:12:06 27° 68° (ENE) 08:15:37 437.425
Cosmos 2499 28 Jun 08:14:26 08:21:45 31° 278° (W) 08:28:45 435.465 / 435.565
CUTE-I 28 Jun 08:14:26 08:19:40 53° 289° (WNW) 08:24:52 437.470
DOVE 4 28 Jun 08:19:09 08:23:27 66° 101° (ESE) 08:27:57 437.250
BRITE-PL 28 Jun 08:19:48 08:23:12 25° 292° (WNW) 08:26:36 437.365/2234.400
AO-85 28 Jun 08:32:20 08:34:07 12° 254° (WSW) 08:35:51 145.980
CANX-2 28 Jun 08:42:32 08:46:27 33° 96° (E) 08:50:19 2200.000
NOAA 15 28 Jun 08:45:00 08:48:59 22° 298° (WNW) 08:52:56 137.62
PHONESAT 2.4 28 Jun 08:46:06 08:49:01 41° 169° (S) 08:51:57 2401.200-2431.200
COMPASS 1 28 Jun 08:46:48 08:49:30 16° 92° (E) 08:52:09 437.405
GOMX 1 28 Jun 08:55:26 08:58:48 24° 292° (WNW) 09:02:15 467.674
CUTE 1.7 + AOD 2 28 Jun 09:02:27 09:06:37 48° 99° (E) 09:10:44 437.475
SEEDS 28 Jun 09:07:15 09:11:15 39° 98° (E) 09:15:12 437.485
NOAA 18 28 Jun 09:12:12 09:15:59 19° 301° (WNW) 09:19:46 137.9125
HO-68 28 Jun 09:14:43 09:21:53 63° 103° (ESE) 09:29:01 435.675
CINEMA 3 28 Jun 09:17:35 09:22:08 82° 104° (ESE) 09:26:53 145.822/145.860
CUBEBUG 2 28 Jun 09:17:47 09:21:42 27° 95° (E) 09:25:40 437.445
Cubesat XI-IV 28 Jun 09:21:23 09:24:34 16° 301° (WNW) 09:27:45 437.490
STRAND 1 28 Jun 09:22:00 09:23:21 11° 272° (W) 09:24:42 437.568
CUSAT 1 28 Jun 09:25:14 09:31:55 32° 288° (WNW) 09:37:41 437.405
ANTELSAT 28 Jun 09:31:04 09:33:38 16° 62° (ENE) 09:36:13 437.575/2403.000
AUBIESAT-1 28 Jun 09:34:32 09:37:01 16° 99° (E) 09:39:36 437.475
ISS 28 Jun 09:42:25 09:45:40 71° 146° (SE) 09:48:56 145.825
DANDE 28 Jun 09:42:25 09:50:30 49° 286° (WNW) 09:57:58 436.750
PRISM 28 Jun 09:43:51 09:47:21 26° 264° (W) 09:50:52 437.425
ZACube-1 28 Jun 09:45:54 09:49:36 24° 94° (E) 09:53:20 437.345
AAUSAT CUBESAT 2 28 Jun 09:47:21 09:51:30 62° 100° (E) 09:55:36 437.432
Oscar 11 28 Jun 09:56:24 10:00:18 31° 96° (E) 10:04:10 145.826/435.025
DOVE 4 28 Jun 09:58:43 10:00:42 13° 297° (WNW) 10:02:43 437.250
DELFI C3 28 Jun 10:03:09 10:05:37 16° 92° (E) 10:08:03 145.870
FUNcube-1 28 Jun 10:03:22 10:07:30 34° 97° (E) 10:11:39 145.935
UWE-3 28 Jun 10:05:33 10:10:04 57° 100° (E) 10:14:40 435.000/436.395/437.385
M-CUBED/EXP-1 PRIME 28 Jun 10:12:27 10:16:14 50° 106° (ESE) 10:20:19 437.505
CANX-2 28 Jun 10:18:45 10:22:08 23° 293° (WNW) 10:25:29 2200.000
BEESAT 3 28 Jun 10:19:29 10:21:05 12° 37° (NE) 10:22:40 437.485
TIGRISAT 28 Jun 10:20:55 10:25:00 46° 72° (ENE) 10:29:13 435.000
COMPASS 1 28 Jun 10:21:17 10:25:17 43° 288° (WNW) 10:29:14 437.405
PHONESAT 2.4 28 Jun 10:22:26 10:25:26 49° 186° (S) 10:28:26 2401.200-2431.200
UNISAT 6 28 Jun 10:25:48 10:30:01 55° 73° (ENE) 10:34:20 437.425
PCSat 28 Jun 10:27:21 10:31:26 21° 42° (NE) 10:35:29 145.827
CUTE 1.7 + AOD 2 28 Jun 10:39:21 10:42:04 17° 296° (WNW) 10:44:47 437.475
SEEDS 28 Jun 10:43:37 10:46:41 20° 294° (WNW) 10:49:44 437.485
NANOSAT C BR1 28 Jun 10:44:27 10:46:50 15° 63° (ENE) 10:49:13 145.865
QB50P1 28 Jun 10:46:56 10:49:36 17° 64° (ENE) 10:52:17 145.935-145.965
POPSAT HIP 1 28 Jun 10:49:59 10:52:47 18° 64° (ENE) 10:55:35 437.405
CUBEBUG 2 28 Jun 10:54:12 10:58:19 33° 291° (WNW) 11:02:29 437.445
BEESAT 2 28 Jun 10:56:09 10:58:32 15° 39° (NE) 11:00:54 435.950
CINEMA 3 28 Jun 10:57:03 10:58:41 12° 299° (WNW) 11:00:21 145.822/145.860
QB50P2 28 Jun 11:01:29 11:04:54 25° 67° (ENE) 11:08:20 145.880/145.840
HUMSAT D 28 Jun 11:01:33 11:05:32 35° 97° (E) 11:09:27 437.325/437.525
HO-68 28 Jun 11:03:13 11:09:07 28° 301° (WNW) 11:14:59 435.675
POLYITAN 1 28 Jun 11:04:05 11:07:31 25° 67° (ENE) 11:10:59 437.675
DUCHIFAT 1 28 Jun 11:04:11 11:07:24 22° 66° (ENE) 11:10:39 145.980
ANTELSAT 28 Jun 11:05:40 11:09:52 54° 260° (W) 11:14:13 437.575/2403.000
AUBIESAT-1 28 Jun 11:07:54 11:11:38 45° 292° (WNW) 11:15:37 437.475
JAS-2 28 Jun 11:09:07 11:13:21 16° 56° (ENE) 11:17:22 435.910
ISS 28 Jun 11:19:35 11:22:22 25° 343° (NNW) 11:25:10 145.825
ZACube-1 28 Jun 11:21:48 11:25:56 35° 290° (WNW) 11:30:06 437.345
AAUSAT CUBESAT 2 28 Jun 11:24:34 11:26:28 13° 298° (WNW) 11:28:21 437.432
Cosmos 2491 28 Jun 11:25:12 11:33:04 36° 70° (ENE) 11:40:53 435.465 / 435.565
Oscar 11 28 Jun 11:32:44 11:36:18 25° 293° (WNW) 11:39:51 145.826/435.025
DANDE 28 Jun 11:33:28 11:35:00 11° 305° (NW) 11:36:31 436.750
DELFI C3 28 Jun 11:36:53 11:40:40 41° 288° (WNW) 11:44:24 145.870
FUNcube-1 28 Jun 11:39:52 11:43:35 25° 293° (WNW) 11:47:19 145.935
CUBEBUG 1 28 Jun 11:43:07 11:44:25 11° 89° (E) 11:45:44 437.445
UWE-3 28 Jun 11:43:14 11:46:05 17° 297° (WNW) 11:48:58 435.000/436.395/437.385
M-CUBED/EXP-1 PRIME 28 Jun 11:48:13 11:50:30 15° 300° (WNW) 11:52:52 437.505
VELOX 1 28 Jun 11:50:01 11:51:54 12° 90° (E) 11:53:46 145.980
O/OREOS (USA 219) 28 Jun 11:51:51 11:54:45 17° 52° (NE) 11:57:39 437.305
RS-15 28 Jun 11:52:20 12:03:03 50° 110° (ESE) 12:14:17 29.354- 29.394
BEESAT 3 28 Jun 11:55:27 11:59:25 81° 54° (NE) 12:03:22 437.485
TIGRISAT 28 Jun 11:59:14 12:01:58 16° 269° (W) 12:04:45 435.000
PHONESAT 2.4 28 Jun 11:59:14 12:01:44 22° 202° (SSW) 12:04:13 2401.200-2431.200
BUGSAT 1 28 Jun 12:00:32 12:04:18 40° 71° (ENE) 12:08:04 437.445
UNISAT 6 28 Jun 12:04:54 12:07:07 14° 270° (W) 12:09:22 437.425
PCSat 28 Jun 12:09:59 12:15:25 74° 242° (WSW) 12:20:48 145.827
NANOSAT C BR1 28 Jun 12:18:04 12:22:08 52° 260° (W) 12:26:15 145.865
50 SAT 28 Jun 12:20:45 12:23:57 27° 96° (E) 12:27:06 437.505
QB50P1 28 Jun 12:21:00 12:25:01 46° 261° (W) 12:29:06 145.935-145.965
ESTCUBE 1 28 Jun 12:23:50 12:28:12 47° 99° (E) 12:32:31 437.505/2401.250
POPSAT HIP 1 28 Jun 12:24:15 12:28:14 43° 261° (W) 12:32:15 437.405
AISAT 28 Jun 12:29:06 12:33:08 34° 98° (E) 12:37:08 437.250
UKube-1 28 Jun 12:30:57 12:34:16 21° 94° (E) 12:37:33 .
BEESAT 2 28 Jun 12:32:51 12:36:51 74° 239° (WSW) 12:40:49 435.950
SPROUT 28 Jun 12:33:19 12:36:03 16° 92° (E) 12:38:46 437.525
QB50P2 28 Jun 12:36:54 12:40:36 29° 264° (W) 12:44:19 145.880/145.840
HUMSAT D 28 Jun 12:37:34 12:40:56 23° 293° (WNW) 12:44:18 437.325/437.525
DUCHIFAT 1 28 Jun 12:39:10 12:42:55 32° 263° (W) 12:46:43 145.980
POLYITAN 1 28 Jun 12:39:35 12:43:13 29° 264° (W) 12:46:54 437.675
JAS-2 28 Jun 12:49:49 12:57:28 76° 73° (ENE) 13:04:25 435.910
DX 1 28 Jun 12:49:51 12:53:58 42° 99° (E) 12:58:05 434.975-435.025
ISS 28 Jun 12:57:15 12:59:36 18° 3° (N) 13:01:56 145.825
YUBILEINY 28 Jun 13:07:29 13:15:57 60° 91° (E) 13:24:29 435.215
AIST 2 28 Jun 13:13:33 13:16:47 21° 43° (NE) 13:20:01 435.215
Oscar 19 28 Jun 13:16:02 13:20:54 45° 70° (ENE) 13:25:48 437.125/150
CUBEBUG 1 28 Jun 13:16:52 13:21:09 68° 287° (WNW) 13:25:27 437.445
Cosmos 2491 28 Jun 13:21:50 13:30:11 53° 270° (W) 13:38:31 435.465 / 435.565
VELOX 1 28 Jun 13:24:26 13:28:47 63° 286° (WNW) 13:33:07 145.980
O/OREOS (USA 219) 28 Jun 13:30:08 13:34:33 58° 251° (WSW) 13:38:58 437.305
Gurwin Techsat 1B 28 Jun 13:32:04 13:36:35 29° 65° (ENE) 13:41:08 435.225
BUGSAT 1 28 Jun 13:37:19 13:39:52 16° 267° (W) 13:42:26 437.445
ITAMSAT 1 28 Jun 13:40:57 13:43:32 14° 58° (ENE) 13:46:07 435.822/435.867
TISAT 1 28 Jun 13:53:29 13:57:14 30° 97° (E) 14:00:57 437.305
50 SAT 28 Jun 13:54:41 13:57:28 20° 293° (WNW) 14:00:15 437.505
ESTCUBE 1 28 Jun 14:01:34 14:04:39 18° 296° (WNW) 14:07:44 437.505/2401.250
RS-15 28 Jun 14:04:07 14:15:24 56° 315° (NW) 14:27:20 29.354- 29.394
AISAT 28 Jun 14:05:56 14:09:25 23° 294° (WNW) 14:12:54 437.250
UKube-1 28 Jun 14:06:28 14:10:24 35° 291° (WNW) 14:14:19 .
SPROUT 28 Jun 14:08:08 14:12:14 45° 288° (WNW) 14:16:19 437.525
SWISSCUBE 28 Jun 14:17:29 14:19:30 12° 89° (E) 14:21:31 437.505
Cosmos 2504 28 Jun 14:21:02 14:28:52 55° 90° (E) 14:37:15 435.465 / 435.565
DX 1 28 Jun 14:26:48 14:29:52 19° 296° (WNW) 14:32:57 434.975-435.025
ISS 28 Jun 14:33:41 14:36:44 34° 23° (NNE) 14:39:46 145.825
JAS-2 28 Jun 14:37:18 14:42:55 22° 269° (W) 14:48:15 435.910
AO-7 28 Jun 14:40:57 14:48:14 35° 57° (ENE) 14:55:33 29.400- 29.500
BEESAT 28 Jun 14:41:33 14:45:05 20° 93° (E) 14:48:35 436.000
ITUPSAT 1 28 Jun 14:42:30 14:46:03 20° 93° (E) 14:49:35 437.325
AIST 2 28 Jun 14:51:29 14:55:30 47° 242° (WSW) 14:59:29 435.215
Oscar 19 28 Jun 14:56:24 15:00:25 23° 267° (W) 15:04:28 437.125/150
YUBILEINY 28 Jun 15:05:41 15:13:14 32° 292° (WNW) 15:20:53 435.215
Gurwin Techsat 1B 28 Jun 15:11:28 15:16:23 38° 263° (W) 15:21:21 435.225
ITAMSAT 1 28 Jun 15:17:02 15:22:15 87° 255° (WSW) 15:27:32 435.822/435.867
TISAT 1 28 Jun 15:29:21 15:32:45 24° 293° (WNW) 15:36:09 437.305
SO-50 28 Jun 15:34:19 15:38:04 22° 112° (ESE) 15:41:48 436.795
SWISSCUBE 28 Jun 15:53:02 15:57:50 73° 286° (WNW) 16:02:35 437.505
HORYU 2 28 Jun 15:57:29 15:59:57 15° 61° (ENE) 16:02:25 437.375
ISS 28 Jun 16:10:08 16:13:11 37° 221° (SW) 16:16:14 145.825
Cosmos 2504 28 Jun 16:15:21 16:22:39 34° 292° (WNW) 16:30:24 435.465 / 435.565
BEESAT 28 Jun 16:18:30 16:23:06 46° 289° (WNW) 16:27:38 436.000
ITUPSAT 1 28 Jun 16:19:31 16:24:07 46° 290° (WNW) 16:28:40 437.325
RS-15 28 Jun 16:21:40 16:31:24 28° 347° (NNW) 16:41:26 29.354- 29.394
AO-7 28 Jun 16:32:26 16:40:36 59° 257° (WSW) 16:48:52 29.400- 29.500
NOAA 15 28 Jun 16:49:09 16:51:37 13° 57° (ENE) 16:54:05 137.62
MOZHAYETS 4 28 Jun 16:57:33 17:02:10 57° 100° (E) 17:06:42
ITAMSAT 1 28 Jun 17:01:25 17:02:28 11° 273° (W) 17:03:30 435.822/435.867
KKS-1 28 Jun 17:07:23 17:11:51 77° 103° (ESE) 17:16:18 437.445
SO-50 28 Jun 17:13:28 17:18:14 51° 309° (NW) 17:23:00 436.795
AIST 1 28 Jun 17:13:45 17:17:44 37° 92° (E) 17:21:43
GONETS M04 28 Jun 17:14:15 17:18:22 14° 74° (ENE) 17:22:29
NOAA 18 28 Jun 17:19:06 17:23:04 21° 61° (ENE) 17:27:05 137.9125
Cubesat XI-IV 28 Jun 17:24:43 17:28:32 20° 61° (ENE) 17:32:20 437.490
HORYU 2 28 Jun 17:31:37 17:36:00 61° 259° (WSW) 17:40:25 437.375
STARS 28 Jun 17:39:31 17:43:57 86° 103° (ESE) 17:48:22 437.465
BRITE-PL 28 Jun 17:52:17 17:56:58 40° 71° (ENE) 18:01:18 437.365/2234.400
CUTE-I 28 Jun 17:57:43 18:02:35 38° 68° (ENE) 18:07:31 437.470
HO-68 28 Jun 18:03:13 18:04:48 11° 45° (NE) 18:06:21 435.675
CUSAT 1 28 Jun 18:19:00 18:21:48 20° 66° (ENE) 18:24:11 437.405
CUBESAT XI-V 28 Jun 18:25:14 18:29:48 56° 100° (E) 18:34:19 437.345
NOAA 15 28 Jun 18:25:19 18:30:38 89° 76° (ENE) 18:35:57 137.62
GOMX 1 28 Jun 18:26:04 18:30:18 37° 71° (ENE) 18:34:19 467.674
MOZHAYETS 4 28 Jun 18:35:56 18:38:52 17° 297° (WNW) 18:41:47
RS-15 28 Jun 18:38:40 18:49:07 31° 22° (NNE) 18:59:40 29.354- 29.394
DANDE 28 Jun 18:41:53 18:45:31 19° 61° (ENE) 18:48:32 436.750
LilacSat-2 28 Jun 18:41:56 18:45:43 88° 63° (ENE) 18:49:32 437.200
KKS-1 28 Jun 18:46:07 18:47:48 12° 300° (WNW) 18:49:30 437.445
AIST 1 28 Jun 18:52:23 18:55:29 19° 289° (WNW) 18:58:35
Cosmos 2499 28 Jun 18:57:09 19:04:59 48° 88° (E) 19:13:16 435.465 / 435.565
NOAA 18 28 Jun 18:57:53 19:03:16 60° 258° (WSW) 19:08:43 137.9125
SO-50 28 Jun 18:57:59 18:59:50 12° 330° (NNW) 19:01:41 436.795
Cubesat XI-IV 28 Jun 19:02:51 19:08:07 60° 259° (WSW) 19:13:26 437.490
GONETS M04 28 Jun 19:04:56 19:13:35 76° 95° (E) 19:22:16
STARS 28 Jun 19:18:39 19:19:37 11° 301° (WNW) 19:20:35 437.465
DOVE 4 28 Jun 19:25:42 19:30:00 72° 76° (ENE) 19:34:11 437.250
BRITE-PL 28 Jun 19:31:32 19:35:32 23° 265° (W) 19:39:19 437.365/2234.400
CANX-2 28 Jun 19:36:14 19:39:52 27° 68° (ENE) 19:43:30 2200.000
CUTE-I 28 Jun 19:38:03 19:42:41 30° 265° (W) 19:47:21 437.470
COMPASS 1 28 Jun 19:39:14 19:41:23 14° 63° (ENE) 19:43:32 437.405
HO-68 28 Jun 19:44:02 19:50:53 51° 66° (ENE) 19:57:46 435.675
STRAND 1 28 Jun 19:48:22 19:52:48 28° 95° (E) 19:57:12 437.568
CUTE 1.7 + AOD 2 28 Jun 19:55:48 19:59:46 38° 71° (ENE) 20:03:46 437.475
SEEDS 28 Jun 19:59:48 20:03:32 31° 69° (ENE) 20:07:17 437.485
CUSAT 1 28 Jun 20:01:17 20:03:42 17° 274° (W) 20:05:49 437.405
CUBESAT XI-V 28 Jun 20:03:49 20:06:44 17° 297° (WNW) 20:09:38 437.345
GOMX 1 28 Jun 20:05:02 20:08:30 21° 266° (W) 20:11:51 467.674
NOAA 15 28 Jun 20:09:23 20:11:05 11° 272° (W) 20:12:48 137.62
CUBEBUG 2 28 Jun 20:17:21 20:20:38 23° 66° (ENE) 20:24:00 437.445
CINEMA 3 28 Jun 20:20:22 20:24:30 81° 76° (ENE) 20:28:41 145.822/145.860
AUBIESAT-1 28 Jun 20:22:08 20:24:31 19° 62° (ENE) 20:26:55 437.475
DANDE 28 Jun 20:24:11 20:28:44 36° 271° (W) 20:32:14 436.750
AAUSAT CUBESAT 2 28 Jun 20:38:09 20:42:09 45° 72° (ENE) 20:46:11 437.432
ZACube-1 28 Jun 20:43:08 20:46:15 20° 65° (ENE) 20:49:25 437.345
Cosmos 2499 28 Jun 20:50:27 20:58:13 41° 289° (WNW) 21:06:27 435.465 / 435.565
DELFI C3 28 Jun 20:51:15 20:52:42 12° 62° (ENE) 20:54:09 145.870
RS-15 28 Jun 20:52:02 21:04:23 70° 51° (NE) 21:16:38 29.354- 29.394
Oscar 11 28 Jun 20:52:04 20:55:45 27° 68° (ENE) 20:59:26 145.826/435.025
FUNcube-1 28 Jun 21:00:01 21:03:37 28° 68° (ENE) 21:07:18 145.935
M-CUBED/EXP-1 PRIME 28 Jun 21:00:39 21:03:54 74° 72° (ENE) 21:07:12 437.505
UWE-3 28 Jun 21:03:28 21:07:30 48° 72° (ENE) 21:11:39 435.000/436.395/437.385
GONETS M04 28 Jun 21:04:31 21:11:20 25° 296° (WNW) 21:18:11
AO-85 28 Jun 21:04:54 21:09:01 22° 111° (ESE) 21:13:04 145.980
CANX-2 28 Jun 21:11:58 21:15:39 27° 265° (W) 21:19:21 2200.000
COMPASS 1 28 Jun 21:12:18 21:16:27 59° 259° (W) 21:20:39 437.405
PRISM 28 Jun 21:23:49 21:27:38 36° 98° (E) 21:31:24 437.425
STRAND 1 28 Jun 21:27:19 21:32:01 37° 292° (WNW) 21:36:42 437.568
HO-68 28 Jun 21:32:32 21:38:48 32° 264° (W) 21:45:08 435.675
CUTE 1.7 + AOD 2 28 Jun 21:32:38 21:35:44 19° 267° (W) 21:38:53 437.475
SEEDS 28 Jun 21:35:46 21:39:14 24° 266° (W) 21:42:44 437.485
CUBEBUG 2 28 Jun 21:53:24 21:57:07 31° 264° (W) 22:00:56 437.445
HUMSAT D 28 Jun 21:53:49 21:57:21 27° 68° (ENE) 22:00:56 437.325/437.525
AUBIESAT-1 28 Jun 21:56:10 21:58:55 24° 259° (WSW) 22:01:41 437.475
AAUSAT CUBESAT 2 28 Jun 22:15:16 22:17:52 16° 269° (W) 22:20:29 437.432
ZACube-1 28 Jun 22:18:23 22:22:16 37° 263° (W) 22:26:17 437.345
UNISAT 6 28 Jun 22:18:25 22:20:09 12° 89° (E) 22:21:53 437.425
DELFI C3 28 Jun 22:23:01 22:27:01 65° 259° (W) 22:31:03 145.870
Oscar 11 28 Jun 22:28:04 22:31:48 28° 265° (W) 22:35:35 145.826/435.025
FUNcube-1 28 Jun 22:36:18 22:39:49 26° 265° (W) 22:43:26 145.935
CUBEBUG 1 28 Jun 22:40:20 22:41:58 12° 61° (ENE) 22:43:36 437.445
UWE-3 28 Jun 22:41:53 22:44:17 15° 270° (W) 22:46:43 435.000/436.395/437.385
AO-85 28 Jun 22:43:49 22:49:11 59° 307° (NW) 22:54:21 145.980
VELOX 1 28 Jun 22:48:27 22:50:43 14° 61° (ENE) 22:52:58 145.980
ANTELSAT 28 Jun 22:56:18 23:00:22 29° 96° (E) 23:04:28 437.575/2403.000
PRISM 28 Jun 22:59:46 23:02:42 19° 295° (WNW) 23:05:36 437.425
50 SAT 28 Jun 23:00:19 23:02:37 16° 65° (ENE) 23:04:55 437.505
RS-15 28 Jun 23:05:18 23:16:07 39° 254° (WSW) 23:26:53 29.354- 29.394
YUBILEINY 28 Jun 23:16:39 23:24:17 31° 67° (ENE) 23:31:52 435.215
ESTCUBE 1 28 Jun 23:23:58 23:28:20 49° 72° (ENE) 23:32:43 437.505/2401.250
UKube-1 28 Jun 23:26:32 23:29:48 21° 65° (ENE) 23:33:04 .
AISAT 28 Jun 23:27:16 23:31:16 35° 69° (ENE) 23:35:16 437.250
SPROUT 28 Jun 23:28:25 23:30:50 15° 63° (ENE) 23:33:16 437.525
HUMSAT D 28 Jun 23:29:23 23:32:55 27° 265° (W) 23:36:31 437.325/437.525
DX 1 28 Jun 23:46:04 23:50:09 41° 70° (ENE) 23:54:14 434.975-435.025
TIGRISAT 28 Jun 23:47:25 23:52:06 88° 282° (WNW) 23:56:47 435.000
UNISAT 6 28 Jun 23:52:42 23:57:20 75° 286° (WNW) 00:02:02 437.425
NANOSAT C BR1 29 Jun 00:01:55 00:05:16 22° 94° (E) 00:08:37 145.865
SO-50 29 Jun 00:04:05 00:08:08 27° 44° (NE) 00:12:03 436.795
QB50P1 29 Jun 00:04:58 00:08:31 25° 95° (E) 00:12:02 145.935-145.965
POPSAT HIP 1 29 Jun 00:08:09 00:11:47 27° 95° (E) 00:15:24 437.405
Cosmos 2504 29 Jun 00:13:02 00:19:48 23° 62° (ENE) 00:26:22 435.465 / 435.565
CUBEBUG 1 29 Jun 00:13:19 00:17:40 74° 258° (WSW) 00:22:01 437.445
QB50P2 29 Jun 00:20:17 00:24:18 39° 98° (E) 00:28:18 145.880/145.840
DUCHIFAT 1 29 Jun 00:21:56 00:25:49 34° 97° (E) 00:29:41 145.980
VELOX 1 29 Jun 00:22:17 00:26:40 64° 259° (W) 00:31:03 145.980
POLYITAN 1 29 Jun 00:22:53 00:26:56 40° 98° (E) 00:30:58 437.675
Cosmos 2491 29 Jun 00:27:44 00:35:38 40° 86° (E) 00:43:31 435.465 / 435.565
AO-85 29 Jun 00:27:55 00:30:41 14° 327° (NNW) 00:33:24 145.980
50 SAT 29 Jun 00:32:31 00:35:59 37° 262° (W) 00:39:30 437.505
ANTELSAT 29 Jun 00:32:58 00:37:02 30° 292° (WNW) 00:41:07 437.575/2403.000
TISAT 1 29 Jun 00:46:12 00:49:39 26° 68° (ENE) 00:53:07 437.305
UKube-1 29 Jun 01:01:37 01:05:37 37° 262° (W) 01:09:38 .
SPROUT 29 Jun 01:02:12 01:06:21 54° 260° (W) 01:10:32 437.525
ESTCUBE 1 29 Jun 01:02:26 01:05:24 17° 268° (W) 01:08:24 437.505/2401.250
AISAT 29 Jun 01:04:21 01:07:49 22° 266° (W) 01:11:17 437.250
YUBILEINY 29 Jun 01:12:58 01:21:38 62° 269° (W) 01:30:17 435.215
PCSat 29 Jun 01:13:11 01:15:01 12° 102° (ESE) 01:16:50 145.827
BUGSAT 1 29 Jun 01:16:09 01:20:14 62° 102° (ESE) 01:24:19 437.445
DX 1 29 Jun 01:23:27 01:26:31 19° 267° (W) 01:29:35 434.975-435.025
SWISSCUBE 29 Jun 01:24:27 01:27:36 18° 62° (ENE) 01:30:47 437.505
TIGRISAT 29 Jun 01:26:50 01:28:03 11° 301° (WNW) 01:29:17 435.000
Oscar 19 29 Jun 01:28:03 01:30:46 14° 90° (E) 01:33:28 437.125/150
NANOSAT C BR1 29 Jun 01:37:14 01:41:03 33° 290° (WNW) 01:44:52 145.865
QB50P1 29 Jun 01:40:34 01:44:15 29° 292° (WNW) 01:47:57 145.935-145.965
POPSAT HIP 1 29 Jun 01:43:53 01:47:31 28° 292° (WNW) 01:51:08 437.405
SO-50 29 Jun 01:44:22 01:48:45 42° 243° (WSW) 01:53:00 436.795
JAS-2 29 Jun 01:44:31 01:50:06 56° 100° (E) 01:55:13 435.910
BEESAT 29 Jun 01:48:42 01:52:40 27° 66° (ENE) 01:56:39 436.000
ITUPSAT 1 29 Jun 01:50:00 01:53:59 27° 66° (ENE) 01:58:01 437.325
QB50P2 29 Jun 01:56:44 01:59:50 20° 295° (WNW) 02:02:57 145.880/145.840
DUCHIFAT 1 29 Jun 01:58:02 02:01:19 22° 294° (WNW) 02:04:35 145.980
POLYITAN 1 29 Jun 01:59:23 02:02:28 20° 295° (WNW) 02:05:33 437.675
Cosmos 2504 29 Jun 02:05:23 02:14:20 84° 263° (W) 02:22:52 435.465 / 435.565
O/OREOS (USA 219) 29 Jun 02:06:24 02:08:40 14° 99° (E) 02:10:57 437.305
TISAT 1 29 Jun 02:21:40 02:25:14 27° 264° (W) 02:28:49 437.305
Cosmos 2491 29 Jun 02:23:55 02:32:18 48° 286° (WNW) 02:40:41 435.465 / 435.565
BEESAT 2 29 Jun 02:27:11 02:29:25 15° 110° (ESE) 02:31:40 435.950
PCSat 29 Jun 02:52:06 02:57:32 86° 119° (ESE) 03:03:00 145.827
BUGSAT 1 29 Jun 02:53:21 02:55:06 13° 298° (WNW) 02:56:52 437.445
